Flag for Poland Weather past 2 weeks in Kraków, Poland

Now
46 °F

Clear.


Feels Like: 46 °F
Forecast: 50 / 79 °F
Wind: 1 mph from East

Location: Krakow Airport

Current Time: Apr 26, 2015 at 5:54:39 AM

Latest Report: Apr 26, 2015 at 5:00 AM


Visibility: 10 mi

Pressure: 29.83 "Hg

Humidity: 82%

Dew point: 41 °F

Location of KrakówLocation

Historic Weather in Kraków — Graph

°F

Kraków temperature yesterday

Maximum temperature yesterday: 73 °F (at 3:30 PM)
Minimum temperature yesterday: 41 °F (at 5:30 AM)
Average temperature yesterday: 59 °F

Past Weeks' High & Low Weather Summary

 TemperatureHumidityPressure
High73 °F (Apr 25, 3:30 PM)93% (Apr 11, 4:00 AM)30.36 "Hg (Apr 11, 4:00 AM)
Low32 °F (Apr 14, 5:00 AM)22% (Apr 20, 7:00 PM)29.80 "Hg (Apr 17, 4:30 PM)
Average51 °F56%30.06 "Hg
* Reported Apr 11 4:00 AM — Apr 26 4:30 AM, Kraków, Weather by CustomWeather, © 2015

Note: Actual official high and low records may vary slightly from our data, if they occured in-between our weather recording intervals... More about our weather records

Advertising

Kraków weather history for previous 24 hours

 ConditionsComfort  
Time TempWeatherWind HumidityBarometerVisibility
4:30 AM
Sun, Apr 26
50 °FClear.2 mph76%29.83 "Hg10 mi
4:00 AM48 °FClear.2 mph76%29.83 "Hg10 mi
3:30 AM48 °FClear.1 mph76%29.83 "Hg10 mi
3:00 AM48 °FClear.1 mph76%29.83 "Hg10 mi
2:30 AM48 °FClear.No wind76%29.83 "Hg10 mi
2:00 AM50 °FClear.1 mph71%29.83 "Hg10 mi
1:30 AM50 °FClear.No wind71%29.86 "Hg10 mi
1:00 AM52 °FClear.1 mph67%29.86 "Hg10 mi
12:30 AM54 °FClear.1 mph63%29.86 "Hg10 mi
12:00 AM54 °FClear.1 mph63%29.86 "Hg10 mi
11:00 PM
Sat, Apr 25
55 °FClear.No wind59%29.86 "Hg10 mi
10:30 PM55 °FClear.No wind59%29.86 "Hg10 mi
10:00 PM55 °FClear.1 mph59%29.86 "Hg10 mi
9:30 PM57 °FClear.No wind55%29.86 "Hg10 mi
9:00 PM59 °FClear.2 mph51%29.86 "Hg10 mi
8:30 PM63 °FSunny.3 mph42%29.86 "Hg10 mi
8:00 PM63 °FSunny.2 mph45%29.83 "Hg10 mi
7:30 PM68 °FSunny.6 mph35%29.83 "Hg10 mi
7:00 PM70 °FPassing clouds.6 mph31%29.83 "HgN/A
6:30 PM72 °FSunny.7 mph31%29.83 "Hg10 mi
6:00 PM72 °FSunny.12 mph29%29.83 "Hg10 mi
5:30 PM73 °FSunny.10 mph27%29.83 "Hg10 mi
5:00 PM73 °FPassing clouds.7 mph27%29.83 "HgN/A
4:30 PM73 °FPassing clouds.7 mph27%29.83 "HgN/A
4:00 PM73 °FPassing clouds.6 mph25%29.86 "HgN/A
3:30 PM73 °FPassing clouds.8 mph31%29.86 "HgN/A
3:00 PM72 °FPassing clouds.12 mph29%29.86 "HgN/A
2:30 PM72 °FPassing clouds.7 mph31%29.89 "HgN/A
2:00 PM72 °FScattered clouds.12 mph29%29.89 "HgN/A
1:30 PM72 °FPassing clouds.9 mph31%29.92 "HgN/A
1:00 PM68 °FScattered clouds.8 mph35%29.92 "HgN/A
12:30 PM70 °FScattered clouds.10 mph33%29.92 "HgN/A
12:00 PM68 °FScattered clouds.7 mph35%29.95 "HgN/A
11:30 AM68 °FScattered clouds.7 mph35%29.95 "HgN/A
11:00 AM68 °FScattered clouds.8 mph40%29.95 "HgN/A
10:30 AM66 °FScattered clouds.7 mph37%29.95 "HgN/A
10:00 AM64 °FPassing clouds.6 mph46%29.95 "HgN/A
9:30 AM63 °FSunny.6 mph52%29.95 "Hg10 mi
9:00 AM61 °FSunny.1 mph52%29.95 "Hg10 mi
8:30 AM57 °FSunny.No wind59%29.95 "Hg10 mi
8:00 AM57 °FSunny.No wind59%29.95 "Hg10 mi
7:30 AM52 °FSunny.No wind82%29.95 "Hg10 mi
7:00 AM48 °FSunny.No wind82%29.95 "Hg10 mi
6:30 AM43 °FSunny.1 mph93%29.95 "Hg10 mi
6:00 AM43 °FClear.No wind87%29.95 "Hg10 mi
5:30 AM41 °FClear.No wind93%29.95 "Hg10 mi
5:00 AM43 °FClear.No wind87%29.95 "Hg10 mi
Weather by CustomWeather, © 2015

See weather overviewHow to use our weather pages